Time,TemperatureF,DewpointF,PressureIn,WindDirection,WindDirectionDegrees,WindSpeedMPH,WindSpeedGustMPH,Humidity,HourlyPrecipIn,Conditions,Clouds,dailyrainin,SolarRadiationWatts/m^2,SoftwareType,DateUTC
2013-09-04 00:05:00,66.9,53.5,29.70,South,175,13.0,15.0,62,0.00,,,0.00,0,Wunderground v.1.15,2013-09-04 06:05:00,
2013-09-04 00:15:00,65.0,54.2,29.71,SW,223,11.0,11.0,68,0.00,,,0.01,0,Wunderground v.1.15,2013-09-04 06:15:00,
2013-09-04 00:20:00,64.5,54.5,29.72,SSE,166,11.0,11.0,70,0.00,,,0.01,0,Wunderground v.1.15,2013-09-04 06:20:00,
2013-09-04 00:25:00,63.7,54.9,29.72,SE,136,11.0,11.0,73,0.00,,,0.01,0,Wunderground v.1.15,2013-09-04 06:25:00,
2013-09-04 00:35:00,62.3,55.7,29.72,SSE,163,9.0,10.0,79,0.09,,,0.03,0,Wunderground v.1.15,2013-09-04 06:35:00,
2013-09-04 00:40:00,62.2,55.6,29.72,South,175,9.0,12.0,79,0.12,,,0.04,0,Wunderground v.1.15,2013-09-04 06:40:00,
2013-09-04 00:50:00,62.9,55.6,29.71,South,180,9.0,12.0,77,0.05,,,0.04,0,Wunderground v.1.15,2013-09-04 06:50:00,
2013-09-04 00:55:00,63.1,56.1,29.71,SSW,210,9.0,12.0,78,0.04,,,0.04,0,Wunderground v.1.15,2013-09-04 06:55:00,
2013-09-04 01:05:00,63.9,55.8,29.71,South,191,9.0,14.0,75,0.00,,,0.04,0,Wunderground v.1.15,2013-09-04 07:05:00,
2013-09-04 01:10:00,64.6,55.7,29.71,SW,220,8.0,8.0,73,0.00,,,0.04,0,Wunderground v.1.15,2013-09-04 07:10:00,
2013-09-04 01:15:00,64.7,55.1,29.71,SSW,197,8.0,8.0,71,0.00,,,0.04,0,Wunderground v.1.15,2013-09-04 07:15:00,
2013-09-04 01:25:00,65.5,54.7,29.70,WSW,241,4.0,6.0,68,0.00,,,0.04,0,Wunderground v.1.15,2013-09-04 07:25:00,
2013-09-04 01:30:00,65.5,55.5,29.70,SE,133,3.0,5.0,70,0.00,,,0.04,0,Wunderground v.1.15,2013-09-04 07:30:00,
2013-09-04 01:35:00,65.2,55.6,29.70,SSE,158,5.0,5.0,71,0.00,,,0.04,0,Wunderground v.1.15,2013-09-04 07:35:00,
2013-09-04 01:45:00,64.8,55.6,29.69,South,171,6.0,8.0,72,0.00,,,0.04,0,Wunderground v.1.15,2013-09-04 07:45:00,
2013-09-04 01:50:00,64.9,55.3,29.69,SSE,159,7.0,7.0,71,0.00,,,0.04,0,Wunderground v.1.15,2013-09-04 07:50:00,
2013-09-04 01:55:00,65.2,54.8,29.69,SE,136,7.0,7.0,69,0.00,,,0.04,0,Wunderground v.1.15,2013-09-04 07:55:00,
2013-09-04 02:00:00,65.6,55.2,29.68,SE,130,5.0,8.0,69,0.00,,,0.04,0,Wunderground v.1.15,2013-09-04 08:00:00,
2013-09-04 02:10:00,65.7,54.8,29.68,SSW,197,5.0,9.0,68,0.00,,,0.04,0,Wunderground v.1.15,2013-09-04 08:10:00,
2013-09-04 02:15:00,65.8,54.9,29.68,SSW,208,6.0,9.0,68,0.00,,,0.04,0,Wunderground v.1.15,2013-09-04 08:15:00,
2013-09-04 02:20:00,65.7,54.4,29.68,WSW,249,6.0,7.0,67,0.00,,,0.04,0,Wunderground v.1.15,2013-09-04 08:20:00,
2013-09-04 02:25:00,65.5,54.2,29.67,SSW,208,5.0,7.0,67,0.00,,,0.04,0,Wunderground v.1.15,2013-09-04 08:25:00,
2013-09-04 02:30:00,65.8,54.5,29.67,WSW,255,5.0,5.0,67,0.00,,,0.04,0,Wunderground v.1.15,2013-09-04 08:30:00,
2013-09-04 02:35:00,65.8,54.1,29.67,South,175,4.0,5.0,66,0.00,,,0.04,0,Wunderground v.1.15,2013-09-04 08:35:00,
2013-09-04 02:40:00,66.2,54.9,29.67,SSW,200,5.0,11.0,67,0.00,,,0.04,0,Wunderground v.1.15,2013-09-04 08:40:00,
2013-09-04 02:50:00,66.6,54.5,29.66,SSE,157,6.0,6.0,65,0.00,,,0.04,0,Wunderground v.1.15,2013-09-04 08:50:00,
2013-09-04 02:55:00,66.8,54.2,29.66,South,189,7.0,7.0,64,0.00,,,0.04,0,Wunderground v.1.15,2013-09-04 08:55:00,
2013-09-04 03:05:00,66.9,54.3,29.66,South,175,7.0,8.0,64,0.00,,,0.04,0,Wunderground v.1.15,2013-09-04 09:05:00,
2013-09-04 03:10:00,67.1,54.1,29.66,SSE,167,7.0,7.0,63,0.00,,,0.04,0,Wunderground v.1.15,2013-09-04 09:10:00,
2013-09-04 03:20:00,67.2,54.2,29.67,South,180,7.0,7.0,63,0.00,,,0.04,0,Wunderground v.1.15,2013-09-04 09:20:00,
2013-09-04 03:25:00,67.3,54.3,29.66,SSE,162,7.0,7.0,63,0.00,,,0.04,0,Wunderground v.1.15,2013-09-04 09:25:00,
2013-09-04 03:30:00,67.4,53.9,29.66,SW,218,7.0,7.0,62,0.00,,,0.04,0,Wunderground v.1.15,2013-09-04 09:30:00,
2013-09-04 03:35:00,67.3,54.3,29.66,SSE,168,7.0,7.0,63,0.00,,,0.04,0,Wunderground v.1.15,2013-09-04 09:35:00,
2013-09-04 03:40:00,67.3,53.8,29.66,SSE,147,7.0,8.0,62,0.00,,,0.04,0,Wunderground v.1.15,2013-09-04 09:40:00,
2013-09-04 03:50:00,67.3,53.8,29.65,SSW,199,6.0,8.0,62,0.00,,,0.04,0,Wunderground v.1.15,2013-09-04 09:50:00,
2013-09-04 03:55:00,67.4,53.5,29.65,SSE,156,6.0,8.0,61,0.00,,,0.04,0,Wunderground v.1.15,2013-09-04 09:55:00,
2013-09-04 04:05:00,67.0,53.5,29.66,WSW,258,6.0,11.0,62,0.00,,,0.04,0,Wunderground v.1.15,2013-09-04 10:05:00,
2013-09-04 04:10:00,66.7,53.3,29.66,WSW,258,6.0,6.0,62,0.00,,,0.04,0,Wunderground v.1.15,2013-09-04 10:10:00,
2013-09-04 04:15:00,66.6,53.2,29.67,ESE,112,3.0,6.0,62,0.00,,,0.04,0,Wunderground v.1.15,2013-09-04 10:15:00,
2013-09-04 04:20:00,66.7,53.7,29.67,ESE,111,4.0,4.0,63,0.00,,,0.04,0,Wunderground v.1.15,2013-09-04 10:20:00,
2013-09-04 04:30:00,66.5,53.9,29.67,WSW,239,3.0,3.0,64,0.00,,,0.04,0,Wunderground v.1.15,2013-09-04 10:30:00,
2013-09-04 04:35:00,66.6,53.2,29.67,SSW,199,2.0,3.0,62,0.00,,,0.04,0,Wunderground v.1.15,2013-09-04 10:35:00,
2013-09-04 04:45:00,66.7,54.6,29.67,SE,129,2.0,2.0,65,0.00,,,0.04,0,Wunderground v.1.15,2013-09-04 10:45:00,
2013-09-04 04:50:00,66.0,54.7,29.67,WSW,256,3.0,3.0,67,0.00,,,0.04,0,Wunderground v.1.15,2013-09-04 10:50:00,
2013-09-04 04:55:00,65.8,54.1,29.67,WSW,256,2.0,3.0,66,0.00,,,0.04,0,Wunderground v.1.15,2013-09-04 10:55:00,
2013-09-04 05:00:00,65.7,53.2,29.67,WSW,256,2.0,2.0,64,0.00,,,0.04,0,Wunderground v.1.15,2013-09-04 11:00:00,
2013-09-04 05:05:00,65.7,54.0,29.67,WSW,256,1.0,3.0,66,0.00,,,0.04,0,Wunderground v.1.15,2013-09-04 11:05:00,
2013-09-04 05:10:00,65.7,53.6,29.67,WSW,256,1.0,1.0,65,0.00,,,0.04,0,Wunderground v.1.15,2013-09-04 11:10:00,
2013-09-04 05:20:00,65.7,53.6,29.67,West,275,2.0,5.0,65,0.00,,,0.04,0,Wunderground v.1.15,2013-09-04 11:20:00,
2013-09-04 05:30:00,65.8,53.3,29.68,WSW,249,3.0,3.0,64,0.00,,,0.04,0,Wunderground v.1.15,2013-09-04 11:30:00,
2013-09-04 05:35:00,65.8,53.3,29.67,West,266,3.0,3.0,64,0.00,,,0.04,0,Wunderground v.1.15,2013-09-04 11:35:00,
2013-09-04 05:45:00,65.6,53.5,29.67,WSW,241,2.0,2.0,65,0.00,,,0.04,0,Wunderground v.1.15,2013-09-04 11:45:00,
2013-09-04 05:50:00,65.6,54.3,29.67,WSW,241,1.0,1.0,67,0.00,,,0.04,0,Wunderground v.1.15,2013-09-04 11:50:00,
2013-09-04 05:55:00,65.4,54.2,29.67,WNW,282,0.0,3.0,67,0.00,,,0.04,0,Wunderground v.1.15,2013-09-04 11:55:00,
2013-09-04 06:00:00,65.1,53.9,29.67,WNW,303,1.0,1.0,67,0.00,,,0.04,0,Wunderground v.1.15,2013-09-04 12:00:00,
2013-09-04 06:10:00,64.6,52.1,29.67,WNW,300,1.0,1.0,64,0.00,,,0.04,0,Wunderground v.1.15,2013-09-04 12:10:00,
2013-09-04 06:15:00,64.4,52.0,29.68,WNW,300,1.0,1.0,64,0.00,,,0.04,0,Wunderground v.1.15,2013-09-04 12:15:00,
2013-09-04 06:20:00,64.4,52.4,29.68,WNW,287,1.0,2.0,65,0.00,,,0.04,0,Wunderground v.1.15,2013-09-04 12:20:00,
2013-09-04 06:30:00,64.3,51.9,29.68,West,273,2.0,5.0,64,0.00,,,0.04,0,Wunderground v.1.15,2013-09-04 12:30:00,
2013-09-04 06:35:00,64.3,51.9,29.68,WNW,298,3.0,5.0,64,0.00,,,0.04,0,Wunderground v.1.15,2013-09-04 12:35:00,
2013-09-04 06:45:00,64.2,51.3,29.68,SSW,206,2.0,3.0,63,0.00,,,0.04,0,Wunderground v.1.15,2013-09-04 12:45:00,
2013-09-04 06:50:00,64.4,51.5,29.68,WSW,243,2.0,2.0,63,0.00,,,0.04,0,Wunderground v.1.15,2013-09-04 12:50:00,
2013-09-04 07:00:00,65.2,51.8,29.68,SSW,195,2.0,4.0,62,0.00,,,0.04,9,Wunderground v.1.15,2013-09-04 13:00:00,
2013-09-04 07:05:00,65.3,51.5,29.68,SSW,195,2.0,4.0,61,0.00,,,0.04,11,Wunderground v.1.15,2013-09-04 13:05:00,
2013-09-04 07:10:00,65.4,51.6,29.68,SSW,196,1.0,1.0,61,0.00,,,0.04,18,Wunderground v.1.15,2013-09-04 13:10:00,
2013-09-04 07:15:00,65.4,51.6,29.69,SW,230,1.0,1.0,61,0.00,,,0.04,23,Wunderground v.1.15,2013-09-04 13:15:00,
2013-09-04 07:20:00,65.4,52.0,29.69,SW,230,0.0,0.0,62,0.00,,,0.04,28,Wunderground v.1.15,2013-09-04 13:20:00,
2013-09-04 07:25:00,65.4,52.0,29.69,SW,229,0.0,0.0,62,0.00,,,0.04,23,Wunderground v.1.15,2013-09-04 13:25:00,
2013-09-04 07:30:00,65.3,52.4,29.69,SW,230,1.0,2.0,63,0.00,,,0.04,26,Wunderground v.1.15,2013-09-04 13:30:00,
2013-09-04 07:35:00,65.1,52.2,29.69,SW,230,2.0,2.0,63,0.00,,,0.04,30,Wunderground v.1.15,2013-09-04 13:35:00,
2013-09-04 07:45:00,64.9,52.8,29.70,SW,230,1.0,2.0,65,0.00,,,0.04,39,Wunderground v.1.15,2013-09-04 13:45:00,
2013-09-04 07:50:00,64.8,51.5,29.70,SW,230,1.0,4.0,62,0.00,,,0.04,44,Wunderground v.1.15,2013-09-04 13:50:00,
2013-09-04 07:55:00,64.8,51.5,29.70,SW,230,2.0,4.0,62,0.00,,,0.04,51,Wunderground v.1.15,2013-09-04 13:55:00,
2013-09-04 08:00:00,64.9,51.1,29.70,SW,230,2.0,2.0,61,0.00,,,0.04,60,Wunderground v.1.15,2013-09-04 14:00:00,
2013-09-04 08:05:00,65.0,51.7,29.70,SW,230,1.0,2.0,62,0.00,,,0.04,70,Wunderground v.1.15,2013-09-04 14:05:00,
2013-09-04 08:10:00,65.2,51.4,29.70,SW,230,1.0,1.0,61,0.00,,,0.04,81,Wunderground v.1.15,2013-09-04 14:10:00,
2013-09-04 08:20:00,65.8,52.0,29.70,WSW,237,1.0,1.0,61,0.00,,,0.04,93,Wunderground v.1.15,2013-09-04 14:20:00,
2013-09-04 08:25:00,66.2,51.9,29.70,WSW,238,1.0,1.0,60,0.00,,,0.04,97,Wunderground v.1.15,2013-09-04 14:25:00,
2013-09-04 08:35:00,66.5,53.9,29.70,NNE,23,2.0,3.0,64,0.00,,,0.04,105,Wunderground v.1.15,2013-09-04 14:35:00,
2013-09-04 08:40:00,66.3,54.2,29.71,NE,37,2.0,2.0,65,0.00,,,0.04,116,Wunderground v.1.15,2013-09-04 14:40:00,
2013-09-04 08:45:00,66.1,54.4,29.71,NE,37,1.0,2.0,66,0.00,,,0.04,134,Wunderground v.1.15,2013-09-04 14:45:00,
2013-09-04 08:55:00,66.0,55.1,29.71,NE,36,0.0,2.0,68,0.00,,,0.04,142,Wunderground v.1.15,2013-09-04 14:55:00,
2013-09-04 09:00:00,66.0,55.1,29.71,NE,36,0.0,0.0,68,0.00,,,0.04,125,Wunderground v.1.15,2013-09-04 15:00:00,
2013-09-04 09:10:00,65.9,55.0,29.71,NE,35,0.0,0.0,68,0.00,,,0.04,146,Wunderground v.1.15,2013-09-04 15:10:00,
2013-09-04 09:20:00,66.0,54.7,29.71,NE,35,0.0,0.0,67,0.00,,,0.04,123,Wunderground v.1.15,2013-09-04 15:20:00,
2013-09-04 09:25:00,66.1,54.4,29.71,North,4,0.0,0.0,66,0.00,,,0.04,125,Wunderground v.1.15,2013-09-04 15:25:00,
2013-09-04 09:30:00,66.3,54.2,29.71,North,4,1.0,2.0,65,0.00,,,0.04,429,Wunderground v.1.15,2013-09-04 15:30:00,
2013-09-04 09:35:00,66.6,54.5,29.71,North,4,0.0,2.0,65,0.00,,,0.04,330,Wunderground v.1.15,2013-09-04 15:35:00,
2013-09-04 09:40:00,67.0,54.4,29.71,North,4,1.0,1.0,64,0.00,,,0.04,91,Wunderground v.1.15,2013-09-04 15:40:00,
2013-09-04 09:45:00,67.3,54.3,29.71,North,4,0.0,1.0,63,0.00,,,0.04,190,Wunderground v.1.15,2013-09-04 15:45:00,
2013-09-04 09:50:00,67.6,54.1,29.71,North,4,0.0,1.0,62,0.00,,,0.04,357,Wunderground v.1.15,2013-09-04 15:50:00,
2013-09-04 09:55:00,68.0,54.0,29.71,North,351,0.0,1.0,61,0.00,,,0.04,121,Wunderground v.1.15,2013-09-04 15:55:00,
2013-09-04 10:05:00,68.6,54.6,29.71,NNW,335,1.0,1.0,61,0.00,,,0.04,311,Wunderground v.1.15,2013-09-04 16:05:00,
2013-09-04 10:10:00,69.0,54.5,29.71,North,9,1.0,1.0,60,0.00,,,0.04,125,Wunderground v.1.15,2013-09-04 16:10:00,
2013-09-04 10:15:00,69.4,54.4,29.71,North,10,1.0,1.0,59,0.00,,,0.04,214,Wunderground v.1.15,2013-09-04 16:15:00,
2013-09-04 10:20:00,69.7,54.7,29.71,NNE,17,1.0,1.0,59,0.00,,,0.04,239,Wunderground v.1.15,2013-09-04 16:20:00,
2013-09-04 10:25:00,70.0,54.5,29.72,North,358,1.0,1.0,58,0.00,,,0.04,318,Wunderground v.1.15,2013-09-04 16:25:00,
2013-09-04 10:30:00,70.7,55.2,29.71,NNW,339,1.0,1.0,58,0.00,,,0.04,624,Wunderground v.1.15,2013-09-04 16:30:00,
2013-09-04 10:35:00,71.7,54.7,29.72,NNE,30,1.0,3.0,55,0.00,,,0.04,564,Wunderground v.1.15,2013-09-04 16:35:00,
2013-09-04 10:40:00,72.7,55.1,29.72,South,171,1.0,2.0,54,0.00,,,0.04,631,Wunderground v.1.15,2013-09-04 16:40:00,
2013-09-04 10:45:00,74.1,55.9,29.72,SE,137,1.0,2.0,53,0.00,,,0.04,652,Wunderground v.1.15,2013-09-04 16:45:00,
2013-09-04 10:50:00,75.1,56.3,29.71,ESE,103,1.0,3.0,52,0.00,,,0.04,680,Wunderground v.1.15,2013-09-04 16:50:00,
2013-09-04 10:55:00,76.5,57.0,29.71,ESE,119,2.0,3.0,51,0.00,,,0.04,707,Wunderground v.1.15,2013-09-04 16:55:00,
2013-09-04 11:00:00,77.5,56.3,29.71,ENE,74,3.0,3.0,48,0.00,,,0.04,752,Wunderground v.1.15,2013-09-04 17:00:00,
2013-09-04 11:05:00,78.2,56.3,29.71,East,89,2.0,3.0,47,0.00,,,0.04,751,Wunderground v.1.15,2013-09-04 17:05:00,
2013-09-04 11:10:00,78.4,55.9,29.71,West,275,2.0,2.0,46,0.00,,,0.04,744,Wunderground v.1.15,2013-09-04 17:10:00,
2013-09-04 11:20:00,79.6,56.4,29.71,ENE,77,3.0,3.0,45,0.00,,,0.04,800,Wunderground v.1.15,2013-09-04 17:20:00,
2013-09-04 11:30:00,80.9,56.3,29.71,NNW,341,3.0,3.0,43,0.00,,,0.04,810,Wunderground v.1.15,2013-09-04 17:30:00,
2013-09-04 11:35:00,81.1,56.5,29.70,East,101,2.0,3.0,43,0.00,,,0.04,824,Wunderground v.1.15,2013-09-04 17:35:00,
2013-09-04 11:40:00,81.2,55.9,29.70,East,87,2.0,2.0,42,0.00,,,0.04,868,Wunderground v.1.15,2013-09-04 17:40:00,
2013-09-04 11:45:00,81.6,56.3,29.70,East,79,3.0,4.0,42,0.00,,,0.04,900,Wunderground v.1.15,2013-09-04 17:45:00,
2013-09-04 11:50:00,82.5,56.4,29.70,ESE,121,3.0,3.0,41,0.00,,,0.04,919,Wunderground v.1.15,2013-09-04 17:50:00,
2013-09-04 12:00:00,83.3,57.1,29.70,ENE,77,3.0,5.0,41,0.00,,,0.04,854,Wunderground v.1.15,2013-09-04 18:00:00,
2013-09-04 12:05:00,83.9,57.0,29.69,ESE,114,4.0,5.0,40,0.00,,,0.04,882,Wunderground v.1.15,2013-09-04 18:05:00,
2013-09-04 12:10:00,84.3,57.3,29.69,ESE,116,3.0,3.0,40,0.00,,,0.04,944,Wunderground v.1.15,2013-09-04 18:10:00,
2013-09-04 12:15:00,84.1,56.5,29.69,ENE,77,3.0,3.0,39,0.00,,,0.04,283,Wunderground v.1.15,2013-09-04 18:15:00,
2013-09-04 12:20:00,83.8,57.6,29.69,ENE,70,2.0,2.0,41,0.00,,,0.04,979,Wunderground v.1.15,2013-09-04 18:20:00,
2013-09-04 12:30:00,84.5,56.8,29.68,SE,129,3.0,3.0,39,0.00,,,0.04,724,Wunderground v.1.15,2013-09-04 18:30:00,
2013-09-04 12:35:00,84.9,57.2,29.68,ENE,60,3.0,4.0,39,0.00,,,0.04,963,Wunderground v.1.15,2013-09-04 18:35:00,
2013-09-04 12:40:00,85.1,57.4,29.68,NNE,14,3.0,3.0,39,0.00,,,0.04,297,Wunderground v.1.15,2013-09-04 18:40:00,
2013-09-04 12:45:00,85.4,56.9,29.68,ENE,58,3.0,3.0,38,0.00,,,0.04,1002,Wunderground v.1.15,2013-09-04 18:45:00,
2013-09-04 12:55:00,85.9,57.3,29.67,East,97,4.0,4.0,38,0.00,,,0.04,997,Wunderground v.1.15,2013-09-04 18:55:00,
2013-09-04 13:05:00,86.1,57.5,29.67,ESE,113,3.0,6.0,38,0.00,,,0.04,956,Wunderground v.1.15,2013-09-04 19:05:00,
2013-09-04 13:15:00,86.2,53.7,29.67,South,185,6.0,6.0,33,0.00,,,0.04,874,Wunderground v.1.15,2013-09-04 19:15:00,
2013-09-04 13:25:00,83.6,53.1,29.67,SE,137,7.0,12.0,35,0.00,,,0.04,299,Wunderground v.1.15,2013-09-04 19:25:00,
2013-09-04 13:35:00,83.4,52.9,29.67,SSE,153,7.0,10.0,35,0.00,,,0.04,318,Wunderground v.1.15,2013-09-04 19:35:00,
2013-09-04 13:40:00,82.6,52.9,29.66,SE,144,7.0,7.0,36,0.00,,,0.04,367,Wunderground v.1.15,2013-09-04 19:40:00,
2013-09-04 13:45:00,82.4,52.0,29.67,South,189,7.0,7.0,35,0.00,,,0.04,350,Wunderground v.1.15,2013-09-04 19:45:00,
2013-09-04 13:50:00,82.7,52.3,29.66,SE,131,7.0,9.0,35,0.00,,,0.04,956,Wunderground v.1.15,2013-09-04 19:50:00,
2013-09-04 13:55:00,83.5,53.0,29.66,SE,127,7.0,11.0,35,0.00,,,0.04,956,Wunderground v.1.15,2013-09-04 19:55:00,
2013-09-04 14:05:00,84.0,52.6,29.66,SE,127,8.0,11.0,34,0.00,,,0.04,844,Wunderground v.1.15,2013-09-04 20:05:00,
2013-09-04 14:10:00,84.1,52.7,29.66,SSE,164,8.0,8.0,34,0.00,,,0.04,830,Wunderground v.1.15,2013-09-04 20:10:00,
2013-09-04 14:15:00,84.1,52.7,29.66,SSW,203,8.0,9.0,34,0.00,,,0.04,846,Wunderground v.1.15,2013-09-04 20:15:00,
2013-09-04 14:20:00,83.9,53.3,29.66,South,171,7.0,8.0,35,0.00,,,0.04,854,Wunderground v.1.15,2013-09-04 20:20:00,
2013-09-04 14:30:00,83.0,52.5,29.66,SW,216,6.0,6.0,35,0.00,,,0.04,287,Wunderground v.1.15,2013-09-04 20:30:00,
2013-09-04 14:35:00,82.8,51.6,29.66,SSE,166,6.0,6.0,34,0.00,,,0.04,309,Wunderground v.1.15,2013-09-04 20:35:00,
2013-09-04 14:40:00,83.4,52.1,29.66,SSE,154,7.0,11.0,34,0.00,,,0.04,984,Wunderground v.1.15,2013-09-04 20:40:00,
2013-09-04 14:45:00,84.4,53.0,29.66,ESE,114,7.0,11.0,34,0.00,,,0.04,949,Wunderground v.1.15,2013-09-04 20:45:00,
2013-09-04 14:50:00,84.7,52.4,29.67,South,175,8.0,8.0,33,0.00,,,0.04,621,Wunderground v.1.15,2013-09-04 20:50:00,
2013-09-04 14:55:00,84.6,53.1,29.67,ESE,112,6.0,11.0,34,0.00,,,0.04,223,Wunderground v.1.15,2013-09-04 20:55:00,
2013-09-04 15:05:00,83.3,52.8,29.66,SE,141,6.0,6.0,35,0.00,,,0.04,165,Wunderground v.1.15,2013-09-04 21:05:00,
2013-09-04 15:15:00,82.9,52.4,29.67,ESE,122,6.0,9.0,35,0.00,,,0.04,272,Wunderground v.1.15,2013-09-04 21:15:00,
2013-09-04 15:20:00,82.8,52.3,29.67,East,101,7.0,7.0,35,0.00,,,0.04,207,Wunderground v.1.15,2013-09-04 21:20:00,
2013-09-04 15:25:00,82.9,52.4,29.67,NNW,334,6.0,18.0,35,0.00,,,0.04,165,Wunderground v.1.15,2013-09-04 21:25:00,
2013-09-04 15:30:00,80.8,55.6,29.68,WNW,292,9.0,10.0,42,0.00,,,0.04,105,Wunderground v.1.15,2013-09-04 21:30:00,
2013-09-04 15:35:00,78.7,55.0,29.68,NW,311,11.0,11.0,44,0.00,,,0.04,56,Wunderground v.1.15,2013-09-04 21:35:00,
2013-09-04 15:40:00,77.9,53.6,29.68,ENE,65,6.0,6.0,43,0.00,,,0.04,47,Wunderground v.1.15,2013-09-04 21:40:00,
2013-09-04 15:45:00,77.5,53.2,29.69,West,276,4.0,10.0,43,0.00,,,0.04,49,Wunderground v.1.15,2013-09-04 21:45:00,
2013-09-04 15:55:00,70.7,58.4,29.70,WSW,251,15.0,23.0,65,0.53,,,0.18,44,Wunderground v.1.15,2013-09-04 21:55:00,
2013-09-04 16:05:00,68.8,57.0,29.70,WNW,293,16.0,22.0,66,0.47,,,0.20,91,Wunderground v.1.15,2013-09-04 22:05:00,
2013-09-04 16:15:00,67.5,59.3,29.71,WSW,238,5.0,13.0,75,0.20,,,0.25,178,Wunderground v.1.15,2013-09-04 22:15:00,
2013-09-04 16:20:00,67.2,59.7,29.72,ESE,106,2.0,2.0,77,0.08,,,0.25,450,Wunderground v.1.15,2013-09-04 22:20:00,
2013-09-04 16:25:00,67.5,60.4,29.72,NNW,335,2.0,4.0,78,0.05,,,0.25,211,Wunderground v.1.15,2013-09-04 22:25:00,
2013-09-04 16:30:00,68.0,60.5,29.72,NW,321,2.0,2.0,77,0.00,,,0.25,153,Wunderground v.1.15,2013-09-04 22:30:00,
2013-09-04 16:35:00,68.1,61.0,29.72,WNW,299,3.0,3.0,78,0.00,,,0.25,125,Wunderground v.1.15,2013-09-04 22:35:00,
2013-09-04 16:40:00,68.1,60.2,29.72,NW,316,1.0,1.0,76,0.00,,,0.25,102,Wunderground v.1.15,2013-09-04 22:40:00,
2013-09-04 16:45:00,67.9,59.7,29.72,NNW,333,1.0,2.0,75,0.00,,,0.25,81,Wunderground v.1.15,2013-09-04 22:45:00,
2013-09-04 16:50:00,67.5,59.7,29.72,NW,314,2.0,4.0,76,0.00,,,0.25,107,Wunderground v.1.15,2013-09-04 22:50:00,
2013-09-04 16:55:00,67.4,59.9,29.72,WNW,303,4.0,4.0,77,0.00,,,0.25,207,Wunderground v.1.15,2013-09-04 22:55:00,
2013-09-04 17:05:00,67.8,58.8,29.72,WNW,285,5.0,5.0,73,0.00,,,0.25,257,Wunderground v.1.15,2013-09-04 23:05:00,
2013-09-04 17:15:00,68.5,60.3,29.72,West,280,3.0,5.0,75,0.00,,,0.25,142,Wunderground v.1.15,2013-09-04 23:15:00,
2013-09-04 17:20:00,68.9,61.0,29.72,West,280,1.0,1.0,76,0.00,,,0.25,139,Wunderground v.1.15,2013-09-04 23:20:00,
2013-09-04 17:30:00,69.1,59.3,29.72,West,280,0.0,0.0,71,0.00,,,0.25,123,Wunderground v.1.15,2013-09-04 23:30:00,
2013-09-04 17:35:00,69.5,60.5,29.71,NW,318,0.0,0.0,73,0.00,,,0.25,109,Wunderground v.1.15,2013-09-04 23:35:00,
2013-09-04 17:45:00,69.1,60.1,29.71,West,280,2.0,3.0,73,0.00,,,0.25,54,Wunderground v.1.15,2013-09-04 23:45:00,
2013-09-04 17:50:00,68.5,57.9,29.71,West,272,4.0,7.0,69,0.00,,,0.25,44,Wunderground v.1.15,2013-09-04 23:50:00,
2013-09-04 18:00:00,68.3,59.3,29.71,NE,43,5.0,5.0,73,0.00,,,0.25,70,Wunderground v.1.15,2013-09-05 00:00:00,
2013-09-04 18:10:00,68.0,59.4,29.71,WSW,243,2.0,2.0,74,0.00,,,0.25,279,Wunderground v.1.15,2013-09-05 00:10:00,
2013-09-04 18:15:00,68.6,61.1,29.71,WSW,243,1.0,2.0,77,0.00,,,0.25,297,Wunderground v.1.15,2013-09-05 00:15:00,
2013-09-04 18:25:00,69.4,60.4,29.72,WSW,243,1.0,1.0,73,0.00,,,0.25,114,Wunderground v.1.15,2013-09-05 00:25:00,
2013-09-04 18:30:00,69.8,61.1,29.72,WSW,243,0.0,2.0,74,0.00,,,0.25,90,Wunderground v.1.15,2013-09-05 00:30:00,
2013-09-04 18:35:00,69.8,60.4,29.72,WSW,243,1.0,2.0,72,0.00,,,0.25,81,Wunderground v.1.15,2013-09-05 00:35:00,
2013-09-04 18:45:00,69.7,59.1,29.72,WSW,243,1.0,2.0,69,0.00,,,0.25,56,Wunderground v.1.15,2013-09-05 00:45:00,
2013-09-04 18:50:00,69.6,59.4,29.72,WSW,243,1.0,2.0,70,0.00,,,0.25,69,Wunderground v.1.15,2013-09-05 00:50:00,
2013-09-04 18:55:00,69.5,58.1,29.72,WSW,243,1.0,2.0,67,0.00,,,0.25,69,Wunderground v.1.15,2013-09-05 00:55:00,
2013-09-04 19:05:00,69.2,58.6,29.72,West,263,3.0,3.0,69,0.00,,,0.25,42,Wunderground v.1.15,2013-09-05 01:05:00,
2013-09-04 19:10:00,69.0,59.6,29.72,WSW,251,3.0,3.0,72,0.00,,,0.25,40,Wunderground v.1.15,2013-09-05 01:10:00,
2013-09-04 19:15:00,68.7,59.7,29.72,WSW,251,2.0,3.0,73,0.00,,,0.25,35,Wunderground v.1.15,2013-09-05 01:15:00,
2013-09-04 19:20:00,68.4,57.8,29.72,West,264,2.0,2.0,69,0.00,,,0.25,42,Wunderground v.1.15,2013-09-05 01:20:00,
2013-09-04 19:25:00,68.3,58.5,29.72,South,175,1.0,2.0,71,0.00,,,0.25,37,Wunderground v.1.15,2013-09-05 01:25:00,
2013-09-04 19:35:00,67.8,57.3,29.72,SSW,204,2.0,2.0,69,0.00,,,0.25,9,Wunderground v.1.15,2013-09-05 01:35:00,
2013-09-04 19:45:00,67.5,57.0,29.72,SSW,204,1.0,2.0,69,0.00,,,0.25,5,Wunderground v.1.15,2013-09-05 01:45:00,
2013-09-04 19:50:00,67.3,57.2,29.72,SSW,205,2.0,4.0,70,0.00,,,0.25,0,Wunderground v.1.15,2013-09-05 01:50:00,
2013-09-04 19:55:00,66.9,56.0,29.72,SSW,205,3.0,4.0,68,0.00,,,0.25,0,Wunderground v.1.15,2013-09-05 01:55:00,
2013-09-04 20:00:00,66.6,55.3,29.72,SSW,205,3.0,5.0,67,0.00,,,0.25,0,Wunderground v.1.15,2013-09-05 02:00:00,
2013-09-04 20:05:00,66.5,56.0,29.72,SSW,205,3.0,5.0,69,0.00,,,0.25,0,Wunderground v.1.15,2013-09-05 02:05:00,
2013-09-04 20:10:00,66.3,55.8,29.72,SSW,205,3.0,3.0,69,0.00,,,0.25,0,Wunderground v.1.15,2013-09-05 02:10:00,
2013-09-04 20:15:00,66.3,55.8,29.72,SSW,205,2.0,3.0,69,0.00,,,0.25,0,Wunderground v.1.15,2013-09-05 02:15:00,
2013-09-04 20:20:00,66.2,55.3,29.72,SSW,205,1.0,4.0,68,0.00,,,0.25,0,Wunderground v.1.15,2013-09-05 02:20:00,
2013-09-04 20:25:00,66.2,55.3,29.72,WNW,288,3.0,4.0,68,0.00,,,0.25,0,Wunderground v.1.15,2013-09-05 02:25:00,
2013-09-04 20:30:00,66.1,55.2,29.72,West,280,4.0,4.0,68,0.00,,,0.25,0,Wunderground v.1.15,2013-09-05 02:30:00,
2013-09-04 20:35:00,66.0,54.3,29.72,West,267,4.0,5.0,66,0.00,,,0.25,0,Wunderground v.1.15,2013-09-05 02:35:00,
2013-09-04 20:40:00,66.1,54.0,29.73,West,266,4.0,4.0,65,0.00,,,0.25,0,Wunderground v.1.15,2013-09-05 02:40:00,
2013-09-04 20:45:00,66.2,54.1,29.73,West,264,3.0,4.0,65,0.00,,,0.25,0,Wunderground v.1.15,2013-09-05 02:45:00,
2013-09-04 20:55:00,66.8,55.1,29.73,WNW,298,3.0,3.0,66,0.00,,,0.25,0,Wunderground v.1.15,2013-09-05 02:55:00,
2013-09-04 21:05:00,66.6,54.9,29.73,NW,318,3.0,4.0,66,0.00,,,0.25,0,Wunderground v.1.15,2013-09-05 03:05:00,
2013-09-04 21:10:00,66.5,54.4,29.73,NW,318,2.0,2.0,65,0.00,,,0.25,0,Wunderground v.1.15,2013-09-05 03:10:00,
2013-09-04 21:15:00,66.4,54.7,29.74,NW,316,1.0,2.0,66,0.00,,,0.25,0,Wunderground v.1.15,2013-09-05 03:15:00,
2013-09-04 21:25:00,66.4,55.1,29.74,West,269,3.0,5.0,67,0.00,,,0.25,0,Wunderground v.1.15,2013-09-05 03:25:00,
2013-09-04 21:30:00,66.4,54.3,29.74,WNW,286,3.0,3.0,65,0.00,,,0.25,0,Wunderground v.1.15,2013-09-05 03:30:00,
2013-09-04 21:35:00,66.2,54.1,29.74,West,269,2.0,3.0,65,0.00,,,0.25,0,Wunderground v.1.15,2013-09-05 03:35:00,
2013-09-04 21:40:00,66.1,53.6,29.74,West,264,2.0,5.0,64,0.00,,,0.25,0,Wunderground v.1.15,2013-09-05 03:40:00,
2013-09-04 21:45:00,66.0,54.3,29.74,West,267,3.0,5.0,66,0.00,,,0.25,0,Wunderground v.1.15,2013-09-05 03:45:00,
2013-09-04 21:50:00,66.0,54.3,29.74,SW,233,2.0,2.0,66,0.00,,,0.25,0,Wunderground v.1.15,2013-09-05 03:50:00,
2013-09-04 22:00:00,66.0,54.3,29.74,WNW,289,2.0,4.0,66,0.00,,,0.25,0,Wunderground v.1.15,2013-09-05 04:00:00,
2013-09-04 22:05:00,65.8,53.7,29.74,West,268,4.0,5.0,65,0.00,,,0.25,0,Wunderground v.1.15,2013-09-05 04:05:00,
2013-09-04 22:10:00,65.5,54.2,29.74,WSW,251,4.0,4.0,67,0.00,,,0.25,0,Wunderground v.1.15,2013-09-05 04:10:00,
2013-09-04 22:15:00,65.6,53.9,29.74,WSW,248,3.0,4.0,66,0.00,,,0.25,0,Wunderground v.1.15,2013-09-05 04:15:00,
2013-09-04 22:20:00,65.8,54.1,29.74,West,276,3.0,3.0,66,0.00,,,0.25,0,Wunderground v.1.15,2013-09-05 04:20:00,
2013-09-04 22:25:00,65.9,53.4,29.74,West,280,4.0,4.0,64,0.00,,,0.25,0,Wunderground v.1.15,2013-09-05 04:25:00,
2013-09-04 22:30:00,66.1,53.1,29.74,West,260,5.0,5.0,63,0.00,,,0.25,0,Wunderground v.1.15,2013-09-05 04:30:00,
2013-09-04 22:40:00,67.0,53.5,29.74,West,264,5.0,5.0,62,0.00,,,0.25,0,Wunderground v.1.15,2013-09-05 04:40:00,
2013-09-04 22:45:00,66.9,53.9,29.74,West,261,3.0,5.0,63,0.00,,,0.25,0,Wunderground v.1.15,2013-09-05 04:45:00,
2013-09-04 22:55:00,67.0,54.0,29.74,West,272,4.0,4.0,63,0.00,,,0.25,0,Wunderground v.1.15,2013-09-05 04:55:00,
2013-09-04 23:00:00,67.0,53.5,29.74,West,269,4.0,6.0,62,0.00,,,0.25,0,Wunderground v.1.15,2013-09-05 05:00:00,
2013-09-04 23:10:00,67.1,53.2,29.74,West,278,5.0,6.0,61,0.00,,,0.25,0,Wunderground v.1.15,2013-09-05 05:10:00,
2013-09-04 23:20:00,67.2,53.3,29.74,West,267,6.0,6.0,61,0.00,,,0.25,0,Wunderground v.1.15,2013-09-05 05:20:00,
2013-09-04 23:25:00,67.5,53.1,29.74,West,260,6.0,6.0,60,0.00,,,0.25,0,Wunderground v.1.15,2013-09-05 05:25:00,
2013-09-04 23:30:00,67.6,54.1,29.74,West,268,4.0,4.0,62,0.00,,,0.25,0,Wunderground v.1.15,2013-09-05 05:30:00,
2013-09-04 23:40:00,67.4,53.9,29.74,WSW,250,2.0,2.0,62,0.00,,,0.25,0,Wunderground v.1.15,2013-09-05 05:40:00,
2013-09-04 23:45:00,67.1,53.2,29.74,West,266,2.0,2.0,61,0.00,,,0.25,0,Wunderground v.1.15,2013-09-05 05:45:00,
2013-09-04 23:50:00,66.9,53.5,29.74,WSW,258,3.0,3.0,62,0.00,,,0.25,0,Wunderground v.1.15,2013-09-05 05:50:00,
2013-09-04 23:55:00,66.9,53.5,29.74,West,261,2.0,3.0,62,0.00,,,0.25,0,Wunderground v.1.15,2013-09-05 05:55:00,